Tracking 32938 objects as of 13-Jan-2026
HD Live streaming from Space Station
objects crossing your sky now

DELTA 1 DEB

Track DELTA 1 DEB now!
10-day predictions


NORAD ID: 9003
Int'l Code: 1975-004CM
Perigee: 586.2 km
Apogee: 617.3 km
Inclination: 98.3 °
Period: 96.6 minutes
Semi major axis: 6972 km
RCS: 0.043 m2 (small)
Launch date: January 22, 1975
Source: United States (US)
Launch site: AIR FORCE WESTERN TEST RANGE (AFWTR)

Note: This is SATELLITE DEBRIS
Your satellite tracking list
Your tracking list is empty




NASA's NSSDC Master Catalog

Two Line Element Set (TLE):
1  9003U 75004CM  26012.97378842  .00002584  00000-0  26615-3 0  9999
2  9003  98.2876 188.2732 0022305  30.8196 329.4325 14.91053850645003
Source of the keplerian elements: AFSPC